Terminal Aerodrome Forecast
Issued by NWS Sterling, VA

Current Version | Previous Version | Graphics & Text | Print | Product List | Glossary On
Versions: 1 2 3 4 5 6 7 8 9 10 11 12 13 14 15 16 17 18 19 20 21 22 23 24 25 26 27
000
FTUS41 KLWX 011720
TAFIAD
TAF
KIAD 011720Z 0118/0224 28006KT P6SM FEW070 SCT150=

USA.gov is the U.S. government's official web portal to all federal, state and local government web resources and services.